[[{"header":{"parameterUnit":"m.s-1","parameterCategory":1,"la1":30.2991,"la2":30.254,"lo1":-89.0895,"lo2":-89.0444,"dy":0.0017,"dx":0.0017,"nx":28,"ny":28,"refTime":"2024-06-29T09:00:00:Z","depth":0,"parameterNumber":2,"parameterNumberName":"U-component_of_WINDS"},"data":[0,0,0,0,0,0,0,0,0,0,0,0,0,0,0,0,0,0,0,0,0,0,0,0,0,0,0,0,0,0,0,0,0,0,0,0,0,0,0,0,0,0,0,0,0,0,0,0,0,0,0,0,0,0,0,0,0,0,1.6615,1.6615,0,1.6697,1.6698,1.6699,1.6689,1.6688,1.6686,1.6685,1.677,1.6774,1.6777,0,0,0,0,0,0,0,0,0,0,0,0,0,1.6451,1.6454,1.6614,1.6616,1.6617,1.6697,1.6698,1.6699,1.6689,1.6688,1.6686,1.6684,1.6769,1.6773,1.6778,0,0,0,0,0,0,0,0,0,0,0,0,0,1.6527,1.6455,1.6614,1.6621,1.6623,1.6697,1.6698,1.6699,1.669,1.6687,1.6686,1.6684,1.6768,1.6773,1.6778,1.6851,0,0,1.6794,1.6797,0,0,0,0,0,0,0,0,1.6522,1.6533,1.6619,1.6621,1.6623,1.6681,1.6672,1.675,1.669,1.6664,1.6685,1.6683,1.6742,1.6749,1.6769,1.6855,1.6858,1.6795,1.6798,1.68,1.6802,0,0,0,0,0,0,0,1.6517,1.6529,1.6647,1.6621,1.6623,1.6621,1.663,1.6686,1.6713,1.6666,1.6666,1.6676,1.6743,1.6764,1.6771,1.686,1.6795,1.6799,1.6803,1.6805,1.7011,1.7013,0,0,0,0,0,0,1.651,1.6525,1.6644,1.665,1.6567,1.6626,1.6635,1.6664,1.6713,1.6718,1.6677,1.6675,1.6756,1.6765,1.6774,1.6863,1.68,1.6805,1.6808,1.7008,1.7011,1.7014,0,0,0,0,0,0,1.6506,1.6521,1.6641,1.6587,1.6602,1.6631,1.6663,1.6667,1.6688,1.6721,1.6726,1.6694,1.6755,1.6767,1.6832,1.6866,1.6808,1.6812,1.7006,1.7009,1.7012,1.7041,0,0,0,0,0,0,1.6502,1.6519,1.6546,1.6588,1.6605,1.6697,1.6665,1.667,1.6697,1.6695,1.6738,1.6743,1.6754,1.6824,1.6837,1.6872,1.6816,1.7003,1.7007,1.7011,1.7037,1.7045,1.7052,0,0,0,0,0,1.6496,1.6551,1.6548,1.6562,1.664,1.6699,1.6709,1.672,1.67,1.6728,1.6749,1.6742,1.686,1.6831,1.6846,1.6883,1.7001,1.7006,1.7011,1.7034,1.7043,1.7051,0,0,0,0,0,0,1.6513,1.6557,1.6553,1.6623,1.6658,1.6697,1.6732,1.673,1.677,1.6766,1.6779,1.6789,1.6855,1.6876,1.6842,1.6956,1.6928,1.6936,1.694,1.695,1.6957,1.695,1.6821,0,0,0,0,0,1.6525,1.6569,1.6605,1.6663,1.668,1.6704,1.673,1.6736,1.6772,1.6786,1.6812,1.6848,1.6893,1.6923,1.6966,1.704,1.705,1.7073,1.7081,1.7086,1.7093,1.7135,1.7146,1.7031,1.7031,1.7031,0,0,1.655,1.6579,1.6606,1.6667,1.6694,1.674,1.6716,1.6765,1.68,1.6794,1.6857,1.6878,1.6918,1.6989,1.7021,1.7008,1.7128,1.7093,1.7097,1.7101,1.7142,1.7153,1.7163,1.7034,1.7034,1.7033,0,0,1.6618,1.6645,1.6697,1.6725,1.6766,1.6782,1.6795,1.6835,1.6849,1.6912,1.6909,1.6951,1.7029,1.7058,1.7083,1.7166,1.7161,1.718,1.7218,1.7259,1.7268,1.7276,1.7306,1.7317,1.7187,1.7187,1.7187,0,1.6644,1.6713,1.6724,1.6774,1.6802,1.6799,1.6853,1.688,1.6933,1.6953,1.6937,1.7036,1.7063,1.7141,1.7161,1.7182,1.7197,1.7175,1.7266,1.7274,1.7282,1.7311,1.7322,1.7189,1.7189,1.7189,1.7189,0,1.6743,1.6791,1.6828,1.688,1.6912,1.6963,1.6984,1.7015,1.7019,1.7036,1.7102,1.7135,1.7186,1.7205,1.7209,1.7285,1.7275,1.7263,1.7234,1.7295,1.7322,1.7333,1.7192,1.7191,1.7191,1.719,0,0,1.6822,1.6882,1.6895,1.6919,1.6966,1.7004,1.7056,1.7106,1.7133,1.7171,1.7216,1.7282,1.7272,1.73,1.7308,1.7344,1.7409,1.7328,1.7329,1.7342,1.7495,1.7503,1.7516,1.7406,1.7409,1.741,1.7491,0,1.6896,1.6988,1.7001,1.7082,1.7127,1.7127,1.7173,1.7207,1.7225,1.7267,1.7288,1.7335,1.7317,1.7334,1.737,1.7393,1.744,1.7388,1.7449,1.7451,1.7438,1.753,1.7539,1.7614,1.7502,1.7504,1.7505,0,1.6993,1.7034,1.712,1.7162,1.7182,1.7222,1.727,1.7309,1.7349,1.736,1.7393,1.7397,1.7453,1.7423,1.75,1.7465,1.7491,1.7507,1.751,1.7515,1.7481,1.7538,1.7638,1.7649,1.7522,1.7521,1.752,0,1.7043,1.712,1.7182,1.7202,1.7253,1.7282,1.7304,1.7342,1.7372,1.7414,1.7433,1.7481,1.7508,1.7545,1.7563,1.7539,1.7639,1.7611,1.7651,1.765,1.7671,1.7669,1.7776,1.7688,1.7688,1.7688,1.7688,0,1.7123,1.7176,1.7205,1.7243,1.7302,1.7318,1.7377,1.7398,1.7432,1.7475,1.7478,1.7519,1.7539,1.7583,1.7598,1.766,1.7672,1.7683,1.7686,1.7682,1.7681,1.7699,1.7694,1.7691,1.769,1.769,1.7689,0,1.7188,1.721,1.7277,1.732,1.7332,1.7374,1.7411,1.7449,1.7468,1.7522,1.7536,1.7566,1.7618,1.764,1.7704,1.7713,1.7785,1.7784,1.7772,1.7772,1.7811,1.7807,1.7933,1.7951,1.7852,1.7853,1.7853,0,1.7238,1.7279,1.7326,1.7355,1.7379,1.7425,1.7456,1.7473,1.7505,1.7554,1.7586,1.7639,1.7681,1.7765,1.7793,1.7842,1.7842,1.7883,1.785,1.7845,1.7843,1.784,1.7845,1.7889,1.789,1.7891,1.7891,0,1.7324,1.7333,1.7376,1.7424,1.7461,1.7499,1.7537,1.7561,1.7584,1.762,1.7673,1.7707,1.7773,1.7825,1.7876,1.79,1.79,1.7902,1.7914,1.791,1.7901,1.7907,1.7788,1.7899,1.7898,1.7897,1.7897,1.7897,1.7383,1.7419,1.7459,1.7508,1.7538,1.7574,1.7611,1.7636,1.768,1.7735,1.7743,1.78,1.7841,1.791,1.7937,1.7983,1.7972,1.7989,1.7994,1.7998,1.8,1.7895,1.7992,1.7992,1.7992,1.7992,1.7992,0,1.7468,1.7494,1.7539,1.7592,1.7631,1.7628,1.767,1.7703,1.7754,1.7791,1.7834,1.7896,1.7947,1.798,1.8032,1.8062,1.8064,1.8075,1.8073,1.8079,1.8006,1.7991,1.8074,1.8074,1.8073,1.8073,1.8073,1.8073,1.7518,1.758,1.7594,1.7672,1.7697,1.7753,1.7778,1.7811,1.7842,1.7911,1.7953,1.7975,1.8011,1.8066,1.8113,1.8122,1.8141,1.8153,1.8161,1.8092,1.8084,1.8076,1.8061,1.8157,1.8157,1.823,1.823,1.8231]},{"header":{"parameterUnit":"m.s-1","parameterCategory":1,"la1":30.2991,"la2":30.254,"lo1":-89.0895,"lo2":-89.0444,"dy":0.0017,"dx":0.0017,"nx":28,"ny":28,"refTime":"2024-06-29T09:00:00:Z","depth":0,"parameterNumber":3,"parameterNumberName":"V-component_of_WINDS"},"data":[0,0,0,0,0,0,0,0,0,0,0,0,0,0,0,0,0,0,0,0,0,0,0,0,0,0,0,0,0,0,0,0,0,0,0,0,0,0,0,0,0,0,0,0,0,0,0,0,0,0,0,0,0,0,0,0,0,0,-2.0771,-2.0772,0,-2.0846,-2.0847,-2.0848,-2.0863,-2.0863,-2.0862,-2.0862,-2.0936,-2.0938,-2.094,0,0,0,0,0,0,0,0,0,0,0,0,0,-2.0639,-2.0641,-2.0771,-2.0772,-2.0773,-2.0846,-2.0847,-2.0848,-2.0863,-2.0863,-2.0862,-2.0862,-2.0935,-2.0938,-2.0941,0,0,0,0,0,0,0,0,0,0,0,0,0,-2.0703,-2.0642,-2.0771,-2.079,-2.0792,-2.0846,-2.0847,-2.0848,-2.0864,-2.0863,-2.0862,-2.0861,-2.0934,-2.0937,-2.0941,-2.098,0,0,-2.0952,-2.0954,0,0,0,0,0,0,0,0,-2.07,-2.0708,-2.0786,-2.0788,-2.0791,-2.0845,-2.0827,-2.0892,-2.0864,-2.0836,-2.0862,-2.0861,-2.0906,-2.0912,-2.0927,-2.0984,-2.0987,-2.0953,-2.0955,-2.0957,-2.0958,0,0,0,0,0,0,0,-2.0695,-2.0705,-2.0801,-2.0787,-2.079,-2.0793,-2.0802,-2.084,-2.0875,-2.0839,-2.084,-2.0849,-2.0907,-2.0924,-2.0929,-2.0988,-2.0953,-2.0956,-2.0958,-2.096,-2.1079,-2.108,0,0,0,0,0,0,-2.0688,-2.0701,-2.0798,-2.0803,-2.0743,-2.0796,-2.0806,-2.0828,-2.0874,-2.0881,-2.0849,-2.0849,-2.0918,-2.0925,-2.0932,-2.098,-2.0956,-2.096,-2.0962,-2.1079,-2.108,-2.1081,0,0,0,0,0,0,-2.0685,-2.0696,-2.0795,-2.0752,-2.0765,-2.08,-2.0825,-2.083,-2.0847,-2.0882,-2.0888,-2.086,-2.0918,-2.0927,-2.0968,-2.0983,-2.0962,-2.0965,-2.1077,-2.1079,-2.108,-2.1078,0,0,0,0,0,0,-2.0681,-2.0695,-2.0711,-2.0753,-2.0767,-2.0831,-2.0826,-2.0832,-2.0854,-2.0854,-2.0894,-2.09,-2.0918,-2.0963,-2.0972,-2.0988,-2.0968,-2.1076,-2.1078,-2.108,-2.1076,-2.1079,-2.1081,0,0,0,0,0,-2.0676,-2.0707,-2.0712,-2.0723,-2.0788,-2.0832,-2.084,-2.086,-2.0855,-2.0871,-2.0893,-2.0899,-2.098,-2.0967,-2.0977,-2.0995,-2.1075,-2.1078,-2.108,-2.1076,-2.1078,-2.1081,0,0,0,0,0,0,-2.0665,-2.0713,-2.0719,-2.0764,-2.0794,-2.0834,-2.0855,-2.0863,-2.0894,-2.0893,-2.0916,-2.0925,-2.0965,-2.0984,-2.0968,-2.1035,-2.1027,-2.1032,-2.1021,-2.1024,-2.1026,-2.102,-2.0971,0,0,0,0,0,-2.0668,-2.07,-2.074,-2.0776,-2.0791,-2.082,-2.084,-2.0853,-2.0885,-2.0897,-2.0923,-2.0953,-2.0985,-2.1005,-2.1037,-2.108,-2.1088,-2.1097,-2.1099,-2.11,-2.1104,-2.1127,-2.1131,-2.1088,-2.1088,-2.1088,0,0,-2.0674,-2.0704,-2.0723,-2.0774,-2.0799,-2.0831,-2.0831,-2.0865,-2.0888,-2.0902,-2.0943,-2.0963,-2.0997,-2.1039,-2.1059,-2.1056,-2.1117,-2.1103,-2.1104,-2.1107,-2.1129,-2.1133,-2.1137,-2.1089,-2.1089,-2.1089,0,0,-2.0701,-2.0728,-2.076,-2.0785,-2.0823,-2.0843,-2.085,-2.089,-2.0904,-2.0946,-2.0957,-2.0985,-2.104,-2.1064,-2.1083,-2.112,-2.1126,-2.113,-2.114,-2.1163,-2.1166,-2.1169,-2.1181,-2.1185,-2.1133,-2.1133,-2.1133,0,-2.0703,-2.0753,-2.0776,-2.0809,-2.0831,-2.0846,-2.0879,-2.0902,-2.0947,-2.0962,-2.0958,-2.1028,-2.1052,-2.11,-2.1109,-2.1124,-2.1133,-2.1125,-2.1164,-2.1167,-2.117,-2.1182,-2.1187,-2.1133,-2.1133,-2.1133,-2.1133,0,-2.0754,-2.0788,-2.081,-2.0854,-2.0879,-2.0912,-2.0938,-2.096,-2.0971,-2.0991,-2.1032,-2.1062,-2.11,-2.1113,-2.1124,-2.1162,-2.1159,-2.1159,-2.1152,-2.1174,-2.1185,-2.119,-2.1133,-2.1133,-2.1133,-2.1133,0,0,-2.0775,-2.0832,-2.084,-2.086,-2.0903,-2.093,-2.0963,-2.1001,-2.1018,-2.105,-2.1077,-2.1124,-2.1125,-2.1147,-2.1161,-2.1181,-2.1206,-2.1179,-2.118,-2.1182,-2.1249,-2.1248,-2.1253,-2.1211,-2.1212,-2.1213,-2.1246,0,-2.0807,-2.0867,-2.0889,-2.0938,-2.097,-2.0985,-2.1014,-2.1042,-2.1062,-2.109,-2.1111,-2.1144,-2.1143,-2.1156,-2.1177,-2.1199,-2.122,-2.1197,-2.1236,-2.1237,-2.1226,-2.1259,-2.1257,-2.1287,-2.1251,-2.1251,-2.1252,0,-2.0851,-2.0884,-2.0937,-2.0976,-2.099,-2.1016,-2.1052,-2.108,-2.1112,-2.1125,-2.115,-2.1162,-2.1197,-2.1188,-2.1235,-2.1219,-2.1237,-2.125,-2.1252,-2.1255,-2.1245,-2.1262,-2.1297,-2.1301,-2.1259,-2.1259,-2.1258,0,-2.086,-2.0918,-2.0957,-2.0974,-2.102,-2.1038,-2.1058,-2.109,-2.1112,-2.1143,-2.1157,-2.1192,-2.121,-2.1236,-2.1258,-2.125,-2.1302,-2.1296,-2.1313,-2.1312,-2.1322,-2.1321,-2.1359,-2.1335,-2.1335,-2.1335,-2.1335,0,-2.0893,-2.0924,-2.0961,-2.0985,-2.1021,-2.1045,-2.1079,-2.11,-2.1129,-2.1156,-2.1171,-2.1196,-2.1223,-2.1252,-2.1268,-2.1304,-2.1313,-2.1323,-2.1327,-2.1321,-2.132,-2.1332,-2.133,-2.1336,-2.1336,-2.1336,-2.1335,0,-2.0908,-2.0935,-2.0978,-2.1019,-2.103,-2.1054,-2.1089,-2.1112,-2.1132,-2.1167,-2.1176,-2.1207,-2.1242,-2.1266,-2.131,-2.1321,-2.1359,-2.1364,-2.1348,-2.135,-2.1365,-2.1363,-2.1412,-2.1419,-2.1391,-2.1391,-2.1391,0,-2.0927,-2.0952,-2.0996,-2.1016,-2.1036,-2.1068,-2.109,-2.1114,-2.1136,-2.1176,-2.1194,-2.123,-2.1259,-2.1313,-2.1339,-2.1373,-2.1377,-2.1392,-2.1382,-2.1375,-2.1376,-2.1374,-2.1376,-2.1393,-2.1393,-2.1393,-2.1394,0,-2.0957,-2.0968,-2.1,-2.1036,-2.1062,-2.1092,-2.1121,-2.1137,-2.1166,-2.119,-2.1226,-2.1249,-2.1294,-2.1329,-2.1365,-2.1385,-2.1394,-2.1397,-2.1402,-2.1396,-2.1386,-2.1391,-2.1351,-2.1395,-2.1395,-2.1395,-2.1395,-2.1395,-2.0974,-2.0996,-2.1031,-2.1065,-2.109,-2.1118,-2.1141,-2.1165,-2.1195,-2.1235,-2.1247,-2.1284,-2.1316,-2.1365,-2.1386,-2.1414,-2.1413,-2.1421,-2.1423,-2.1424,-2.1424,-2.1382,-2.1421,-2.1421,-2.1421,-2.1421,-2.1421,0,-2.1003,-2.1026,-2.1058,-2.1099,-2.1126,-2.1134,-2.1167,-2.1189,-2.1221,-2.1251,-2.128,-2.1321,-2.1354,-2.1383,-2.1418,-2.1435,-2.144,-2.1444,-2.1442,-2.1446,-2.1423,-2.1415,-2.1439,-2.1439,-2.1439,-2.1439,-2.1439,-2.1439,-2.1022,-2.106,-2.1076,-2.1127,-2.1149,-2.1186,-2.1204,-2.1229,-2.1253,-2.1298,-2.1326,-2.1346,-2.1375,-2.1412,-2.1443,-2.145,-2.1462,-2.1464,-2.1472,-2.145,-2.1448,-2.1446,-2.1438,-2.1467,-2.1467,-2.1493,-2.1493,-2.1493]}]]